Location: Laupheim
(48.2265°N, 9.8829°E)
Time: 07:11:06
(UTC+02:00)

ISS - Visible Passes

Search period start: 22 July 2018 00:00
Search period end: 01 August 2018 00:00
Orbit: 402 x 408 km, 51.6° (Epoch: 22 July)

Date Brightness Start Highest point End Pass type
(mag) Time Alt. Az. Time Alt. Az. Time Alt. Az.
22 Jul -2.7 00:31:13 10° W 00:34:24 46° N 00:37:37 10° ENE visible
22 Jul -3.2 02:07:58 10° WNW 02:11:13 57° NNE 02:14:29 10° E visible
22 Jul -3.4 03:44:34 10° WNW 03:47:40 39° SSW 03:50:47 10° SE visible
22 Jul -3.6 22:02:33 10° SW 22:05:42 47° SSE 22:08:53 10° ENE visible
22 Jul -3.0 23:38:59 10° W 23:42:12 53° NNW 23:45:27 10° ENE visible
23 Jul -2.8 01:15:49 10° WNW 01:19:02 47° N 01:20:52 22° ENE visible
23 Jul -1.8 02:52:21 10° WNW 02:53:21 18° WNW 02:53:21 18° WNW visible
23 Jul -3.5 22:46:45 10° WSW 22:50:01 68° NNW 22:53:18 10° ENE visible
24 Jul -2.7 00:23:37 10° WNW 00:26:48 44° N 00:29:10 16° ENE visible
24 Jul -2.1 02:00:13 10° WNW 02:01:45 25° WNW 02:01:45 25° WNW visible
24 Jul -3.9 21:54:35 10° WSW 21:57:51 86° SSE 22:01:09 10° ENE visible
24 Jul -2.7 23:31:22 10° WNW 23:34:33 44° N 23:37:44 10° ENE visible
25 Jul -3.1 01:08:04 10° WNW 01:10:47 52° NNW 01:10:47 52° NNW visible
25 Jul -2.9 22:39:05 10° W 22:42:18 49° N 22:45:31 10° ENE visible
26 Jul -3.0 00:15:54 10° WNW 00:19:07 50° N 00:20:00 37° ENE visible
26 Jul -1.0 01:52:26 10° WNW 01:52:38 11° WNW 01:52:38 11° WNW visible
26 Jul -3.2 21:46:48 10° W 21:50:03 61° NNW 21:53:20 10° ENE visible
26 Jul -2.7 23:23:40 10° WNW 23:26:51 44° N 23:29:20 15° ENE visible
27 Jul -2.2 01:00:14 10° WNW 01:01:57 28° WNW 01:01:57 28° WNW visible
27 Jul -2.7 22:31:24 10° WNW 22:34:34 43° N 22:37:44 10° ENE visible
28 Jul -3.6 00:08:04 10° WNW 00:11:19 70° NNE 00:11:19 70° NNE visible
28 Jul -2.8 21:39:05 10° W 21:42:16 47° N 21:45:28 10° ENE visible
28 Jul -3.2 23:15:51 10° WNW 23:19:05 54° NNE 23:20:44 25° E visible
29 Jul -1.5 00:52:25 10° WNW 00:53:21 17° W 00:53:21 17° W visible
29 Jul -2.8 22:23:36 10° WNW 22:26:48 46° N 22:29:59 10° E visible
30 Jul -3.3 00:00:09 10° WNW 00:02:47 52° W 00:02:47 52° W visible
30 Jul -3.8 23:07:55 10° WNW 23:11:13 79° NNE 23:12:14 41° E visible
31 Jul -0.9 00:44:45 10° W 00:44:52 11° W 00:44:52 11° W visible
31 Jul -3.3 22:15:41 10° WNW 22:18:56 58° NNE 22:21:42 13° E visible
31 Jul -2.4 23:52:16 10° WNW 23:54:21 29° WSW 23:54:21 29° WSW visible
